STARLINK-11267, 60994

Orbit data source: Space-Track

STARLINK-11267, 60994 is a payload satellite owned by SpaceX/Seattle (US) in LEO that was launched on Thu, 05 Sep 2024 UTC via an FALCON 9 launch vehicle from the Air Force Eastern Test Range (AFETR). Payload-class satellites include a variety of spacecraft equipped with specific instruments for various scientific and technological missions. These include communications satellites like Starlink; space stations such as the ISS; scientific satellites like the Hubble; Earth observation satellites from companies like Planet Labs, Umbra, and HawkEye 360; GPS; miniature CubeSats for education and research; and military/defense satellites.

Loading next visibility...
Identifier
60994, 2024-158E
Orbit
LEO
Country
Flag of USUS
Related business
Manufacturer
SpaceX/Seattle
Mission
Operational Commercial Communications
Bus & Motor
STARLINK V2M, Unknown motor
Mass
730 kg wet, ~700 kg dry
Launch date (UTC)
2024-09-05 (1 year ago)
Launch vehicle
FALCON 9
Launch site
Air Force Eastern Test Range (AFETR)
Object type
Payload
Rocket body
Debris
Shape & HBR
Box + 2 Pan, 14.5 m
Radar Cross Section
36.964 m², Large (>1 m²)

Expand to show TLE details & history
Last TLE update: 15 hours ago

TLE from 15 hours ago
0 STARLINK-11267
1 60994U 24158E   25242.12824475 -.00001653  00000-0 -87913-5 0  9996
2 60994  53.1594 145.9013 0000917  75.0889 285.0231 15.69711050 57507
Epoch: 2025-08-30T03:04Z
TLE epoch observation values (Epoch: 2025-08-30T03:04:40.346Z)
Latitude
0.00003°
Longitude
121.16623°
Altitude
360.479 km
Speed
7.694 km/s
True Right ascension
09h 43m 36s
True Declination
0° 00' 00"
Sunlit
Object was in daylight at epoch
Visualization orbit readout
Latitude
Unknown
Longitude
Unknown
Altitude
Unknown
Speed
Unknown
Apparent Right ascension
Unknown
Apparent Declination
Unknown
Sunlit
N/A
Visualization observer readout
Local Sidereal Time
09:24:50
Azimuth
Unknown
Elevation
Unknown
Doppler factor
Unknown
Orbital elements
Apogee altitude
360.602 km
Perigee altitude
359.367 km
Semi-major axis
6,738.122 km
Eccentricity
0.00009
Inclination
53.1594°
RAAN
145.9013°
Arg. of periapsis
75.0889°
True anomaly
285.01295°
Mean anomaly
285.0231°
Eccentric anomaly
285.01803°
Mean motion
3.92405 °/min
Orbital period
91.74 mins
BSTAR
-0.0000087913
Loading maneuver chart data...
Computing Atmospheric mass density...
Loading historical data...
Loading historical data...
Loading historical data...
Loading historical data...
Loading historical data...
Loading historical data...
Loading historical data...

Documentation

Showing up to 5 results
|